,,,PA_Meas_PMT16A,,PR_Meas_QMR101_102,,RH_Meas_QMH101,,SR_Meas_QMS101,,TA_Meas_QMH101,,GenWind,,GenWind,
date,time,status,PA,status,PR,status,RH,status,SR,status,TA,status,DirAvg,status,SpdAvg,
2009-10-24, 00:00:04,VALID,1003.51,VALID,0,VALID,94.1175,VALID,0,VALID,22.3218,VALID,356,VALID,0.64375,
2009-10-24, 00:01:04,VALID,1003.51,VALID,0,VALID,94.087,VALID,0.100563,VALID,22.3202,VALID,351,VALID,0.733203,
2009-10-24, 00:02:04,VALID,1003.52,VALID,0,VALID,94.0488,VALID,0,VALID,22.3007,VALID,350,VALID,0.583984,
2009-10-24, 00:03:04,VALID,1003.52,VALID,0,VALID,94.0488,VALID,0,VALID,22.3007,VALID,346,VALID,0.597656,
2009-10-24, 00:04:04,VALID,1003.51,VALID,0,VALID,94.0717,VALID,0.100563,VALID,22.3396,VALID,344,VALID,0.646875,
2009-10-24, 00:05:04,VALID,1003.49,VALID,0,VALID,94.0259,VALID,0,VALID,22.3591,VALID,340,VALID,0.616797,
2009-10-24, 00:06:04,VALID,1003.48,VALID,0,VALID,93.9191,VALID,0.100563,VALID,22.3591,VALID,336,VALID,0.596875,
2009-10-24, 00:07:04,VALID,1003.48,VALID,0,VALID,93.7971,VALID,0.100563,VALID,22.3591,VALID,345,VALID,0.505469,
2009-10-24, 00:08:04,VALID,1003.48,VALID,0,VALID,93.6826,VALID,0.100563,VALID,22.3396,VALID,345,VALID,0.609766,
2009-10-24, 00:09:04,VALID,1003.5,VALID,0,VALID,93.675,VALID,0,VALID,22.3591,VALID,351,VALID,0.713672,
2009-10-24, 00:10:04,VALID,1003.46,VALID,0,VALID,93.6826,VALID,0.100563,VALID,22.3802,VALID,352,VALID,0.600781,
2009-10-24, 00:11:04,VALID,1003.47,VALID,0,VALID,93.7055,VALID,0,VALID,22.3785,VALID,353,VALID,0.683984,
2009-10-24, 00:12:04,VALID,1003.46,VALID,0,VALID,93.7132,VALID,0,VALID,22.3785,VALID,353,VALID,0.544531,
2009-10-24, 00:13:04,VALID,1003.46,VALID,0,VALID,93.7132,VALID,0,VALID,22.3785,VALID,353,VALID,0.575781,
2009-10-24, 00:14:04,VALID,1003.42,VALID,0,VALID,93.6826,VALID,0.100563,VALID,22.3785,VALID,353,VALID,0.551172,
2009-10-24, 00:15:04,VALID,1003.41,VALID,0,VALID,93.6903,VALID,0,VALID,22.3785,VALID,353,VALID,0.486328,
2009-10-24, 00:16:04,VALID,1003.38,VALID,0,VALID,93.6521,VALID,0.100563,VALID,22.3785,VALID,353,VALID,0.348047,
2009-10-24, 00:17:04,VALID,1003.36,VALID,0,VALID,93.6216,VALID,0,VALID,22.3785,VALID,353,VALID,0.367578,
2009-10-24, 00:18:04,VALID,1003.36,VALID,0,VALID,93.614,VALID,0,VALID,22.3785,VALID,353,VALID,0.307422,
2009-10-24, 00:19:04,VALID,1003.33,VALID,0,VALID,93.5987,VALID,0.100563,VALID,22.398,VALID,353,VALID,0.435156,
2009-10-24, 00:20:04,VALID,1003.31,VALID,0,VALID,93.5377,VALID,0,VALID,22.4191,VALID,353,VALID,0.465625,
2009-10-24, 00:21:04,VALID,1003.33,VALID,0,VALID,93.4385,VALID,0.100563,VALID,22.398,VALID,353,VALID,0.595312,
2009-10-24, 00:22:04,VALID,1003.29,VALID,0,VALID,93.3851,VALID,0,VALID,22.3574,VALID,353,VALID,0.462891,
2009-10-24, 00:23:04,VALID,1003.31,VALID,0,VALID,93.3851,VALID,0,VALID,22.3785,VALID,353,VALID,0.530078,
2009-10-24, 00:24:04,VALID,1003.3,VALID,0,VALID,93.4538,VALID,0.100563,VALID,22.3785,VALID,351,VALID,0.447656,
2009-10-24, 00:25:04,VALID,1003.3,VALID,0,VALID,93.4462,VALID,0,VALID,22.398,VALID,351,VALID,0.553125,
2009-10-24, 00:26:04,VALID,1003.28,VALID,0,VALID,93.3546,VALID,0,VALID,22.4174,VALID,351,VALID,0.530469,
2009-10-24, 00:27:04,VALID,1003.26,VALID,0,VALID,93.1868,VALID,0,VALID,22.458,VALID,351,VALID,0.429297,
2009-10-24, 00:28:04,VALID,1003.24,VALID,0,VALID,93.0037,VALID,0.100563,VALID,22.4775,VALID,351,VALID,0.355469,
2009-10-24, 00:29:04,VALID,1003.21,VALID,0,VALID,92.7977,VALID,0,VALID,22.5164,VALID,351,VALID,0,
2009-10-24, 00:30:04,VALID,1003.19,VALID,0,VALID,92.6299,VALID,0,VALID,22.5164,VALID,351,VALID,0.40625,
2009-10-24, 00:31:04,VALID,1003.19,VALID,0,VALID,92.4544,VALID,0,VALID,22.5147,VALID,351,VALID,0.5875,
2009-10-24, 00:32:04,VALID,1003.19,VALID,0,VALID,92.4315,VALID,0,VALID,22.4758,VALID,351,VALID,0.669141,
2009-10-24, 00:33:04,VALID,1003.15,VALID,0,VALID,92.4849,VALID,0,VALID,22.4775,VALID,351,VALID,0.663281,
2009-10-24, 00:34:04,VALID,1003.14,VALID,0,VALID,92.6528,VALID,0,VALID,22.458,VALID,351,VALID,0.538672,
2009-10-24, 00:35:04,VALID,1003.12,VALID,0,VALID,92.7824,VALID,0.100563,VALID,22.4386,VALID,351,VALID,0.683203,
2009-10-24, 00:36:04,VALID,1003.09,VALID,0,VALID,92.9121,VALID,0.100563,VALID,22.398,VALID,351,VALID,0.742188,
2009-10-24, 00:37:04,VALID,1003.08,VALID,0,VALID,93.0037,VALID,0,VALID,22.4191,VALID,352,VALID,0.723437,
2009-10-24, 00:38:04,VALID,1003.07,VALID,0,VALID,93.0418,VALID,0,VALID,22.4191,VALID,352,VALID,0.615625,
2009-10-24, 00:39:04,VALID,1003.04,VALID,0,VALID,93.0571,VALID,0,VALID,22.398,VALID,352,VALID,0.655469,
2009-10-24, 00:40:04,VALID,1003.06,VALID,0,VALID,93.1257,VALID,0.100563,VALID,22.398,VALID,352,VALID,0.540625,
2009-10-24, 00:41:04,VALID,1003.01,VALID,0,VALID,93.1334,VALID,0,VALID,22.4174,VALID,352,VALID,0.625391,
2009-10-24, 00:42:04,VALID,1003.02,VALID,0,VALID,93.0495,VALID,0,VALID,22.4174,VALID,352,VALID,0.574219,
2009-10-24, 00:43:04,VALID,1002.98,VALID,0,VALID,93.0342,VALID,0,VALID,22.4174,VALID,352,VALID,0.599609,
2009-10-24, 00:44:04,VALID,1002.97,VALID,0,VALID,93.0495,VALID,0,VALID,22.4386,VALID,352,VALID,0.5625,
2009-10-24, 00:45:04,VALID,1002.95,VALID,0,VALID,93.0952,VALID,0,VALID,22.4386,VALID,352,VALID,0.558594,
2009-10-24, 00:46:04,VALID,1002.96,VALID,0,VALID,93.1029,VALID,0,VALID,22.4174,VALID,352,VALID,0.683203,
2009-10-24, 00:47:04,VALID,1002.93,VALID,0,VALID,93.1944,VALID,0.100563,VALID,22.4174,VALID,352,VALID,0.612109,
2009-10-24, 00:48:04,VALID,1002.93,VALID,0,VALID,93.2402,VALID,0,VALID,22.458,VALID,352,VALID,0.540625,
2009-10-24, 00:49:04,VALID,1002.89,VALID,0,VALID,93.2402,VALID,0,VALID,22.4369,VALID,352,VALID,0.398438,
2009-10-24, 00:50:04,VALID,1002.9,VALID,0,VALID,93.141,VALID,0,VALID,22.458,VALID,352,VALID,0.533984,
2009-10-24, 00:51:04,VALID,1002.89,VALID,0,VALID,93.141,VALID,0,VALID,22.4386,VALID,352,VALID,0.419922,
2009-10-24, 00:52:04,VALID,1002.93,VALID,0,VALID,93.1715,VALID,0,VALID,22.4386,VALID,352,VALID,0.432813,
2009-10-24, 00:53:04,VALID,1002.92,VALID,0,VALID,93.2631,VALID,0,VALID,22.4386,VALID,352,VALID,0.480859,
2009-10-24, 00:54:04,VALID,1002.94,VALID,0,VALID,93.3165,VALID,0.100563,VALID,22.4386,VALID,352,VALID,0.585938,
2009-10-24, 00:55:04,VALID,1002.94,VALID,0,VALID,93.3546,VALID,0,VALID,22.4174,VALID,352,VALID,0.720703,
2009-10-24, 00:56:04,VALID,1002.94,VALID,0,VALID,93.4233,VALID,0,VALID,22.398,VALID,351,VALID,0.565625,
2009-10-24, 00:57:04,VALID,1002.94,VALID,0,VALID,93.4614,VALID,0,VALID,22.4191,VALID,352,VALID,0.866406,
2009-10-24, 00:58:04,VALID,1002.94,VALID,0,VALID,93.5606,VALID,0,VALID,22.4191,VALID,352,VALID,0.591016,
2009-10-24, 00:59:04,VALID,1002.91,VALID,0,VALID,93.5911,VALID,0,VALID,22.4191,VALID,351,VALID,0.712891,
2009-10-24, 01:00:04,VALID,1002.91,VALID,0,VALID,93.5682,VALID,0.100563,VALID,22.398,VALID,351,VALID,0.542188,
2009-10-24, 01:01:04,VALID,1002.91,VALID,0,VALID,93.5758,VALID,0,VALID,22.398,VALID,352,VALID,0.69375,
2009-10-24, 01:02:04,VALID,1002.89,VALID,0,VALID,93.5835,VALID,0,VALID,22.3997,VALID,352,VALID,0.570703,
2009-10-24, 01:03:04,VALID,1002.91,VALID,0,VALID,93.6216,VALID,0.100563,VALID,22.4191,VALID,352,VALID,0.602734,
2009-10-24, 01:04:04,VALID,1002.9,VALID,0,VALID,93.614,VALID,0.100563,VALID,22.3785,VALID,352,VALID,0.557813,
2009-10-24, 01:05:04,VALID,1002.93,VALID,0,VALID,93.614,VALID,0,VALID,22.3785,VALID,352,VALID,0.553906,
2009-10-24, 01:06:04,VALID,1002.95,VALID,0,VALID,93.6826,VALID,0,VALID,22.398,VALID,352,VALID,0.546094,
2009-10-24, 01:07:04,VALID,1002.95,VALID,0,VALID,93.6674,VALID,0.100563,VALID,22.4174,VALID,351,VALID,0.389844,
2009-10-24, 01:08:04,VALID,1002.95,VALID,0,VALID,93.6445,VALID,0,VALID,22.4563,VALID,351,VALID,0.380859,
2009-10-24, 01:09:04,VALID,1002.94,VALID,0,VALID,93.5072,VALID,0,VALID,22.4758,VALID,351,VALID,0.550781,
2009-10-24, 01:10:04,VALID,1002.95,VALID,0,VALID,93.2783,VALID,0,VALID,22.497,VALID,351,VALID,0.286719,
2009-10-24, 01:11:04,VALID,1002.97,VALID,0,VALID,93.2554,VALID,0.100563,VALID,22.5147,VALID,351,VALID,0.412891,
2009-10-24, 01:12:04,VALID,1002.97,VALID,0,VALID,93.1105,VALID,0,VALID,22.5147,VALID,351,VALID,0.459766,
2009-10-24, 01:13:04,VALID,1002.97,VALID,0,VALID,93.0342,VALID,0,VALID,22.5164,VALID,351,VALID,0.263672,
2009-10-24, 01:14:04,VALID,1002.98,VALID,0,VALID,93.0495,VALID,0.100563,VALID,22.4953,VALID,351,VALID,0.503516,
2009-10-24, 01:15:04,VALID,1002.99,VALID,0,VALID,92.8969,VALID,0.100563,VALID,22.4563,VALID,351,VALID,0.630078,
2009-10-24, 01:16:04,VALID,1002.98,VALID,0,VALID,92.9579,VALID,0,VALID,22.4369,VALID,351,VALID,0.725,
2009-10-24, 01:17:04,VALID,1002.95,VALID,0,VALID,93.0647,VALID,0,VALID,22.4386,VALID,351,VALID,0.607031,
2009-10-24, 01:18:04,VALID,1002.96,VALID,0,VALID,93.1563,VALID,0,VALID,22.3997,VALID,351,VALID,0.588672,
2009-10-24, 01:19:04,VALID,1002.98,VALID,0,VALID,93.2859,VALID,0,VALID,22.3379,VALID,351,VALID,0.621094,
2009-10-24, 01:20:04,VALID,1002.97,VALID,0,VALID,93.4156,VALID,0.100563,VALID,22.3202,VALID,351,VALID,0.735547,
2009-10-24, 01:21:04,VALID,1002.95,VALID,0,VALID,93.5301,VALID,0.100563,VALID,22.2812,VALID,351,VALID,0.749609,
2009-10-24, 01:22:04,VALID,1002.98,VALID,0,VALID,93.6445,VALID,0.100563,VALID,22.3218,VALID,351,VALID,0.61875,
2009-10-24, 01:23:04,VALID,1002.97,VALID,0,VALID,93.7971,VALID,0.100563,VALID,22.2796,VALID,354,VALID,0.438672,
2009-10-24, 01:24:04,VALID,1002.97,VALID,0,VALID,94.0107,VALID,0.100563,VALID,22.3396,VALID,354,VALID,0.360547,
2009-10-24, 01:25:04,VALID,1002.97,VALID,0,VALID,94.1099,VALID,0.100563,VALID,22.3591,VALID,354,VALID,0.154687,
2009-10-24, 01:26:04,VALID,1002.96,VALID,0,VALID,94.1099,VALID,0,VALID,22.3396,VALID,354,VALID,0.360938,
2009-10-24, 01:27:04,VALID,1002.94,VALID,0,VALID,94.0336,VALID,0,VALID,22.3202,VALID,354,VALID,0.398828,
2009-10-24, 01:28:04,VALID,1002.9,VALID,0,VALID,94.0183,VALID,0,VALID,22.3202,VALID,354,VALID,0.361328,
2009-10-24, 01:29:04,VALID,1002.86,VALID,0,VALID,94.0183,VALID,0.100563,VALID,22.3007,VALID,354,VALID,0.366797,
2009-10-24, 01:30:04,VALID,1002.87,VALID,0,VALID,94.0259,VALID,0,VALID,22.3007,VALID,354,VALID,0.432422,
2009-10-24, 01:31:04,VALID,1002.82,VALID,0,VALID,94.1251,VALID,0,VALID,22.3007,VALID,354,VALID,0.242578,
2009-10-24, 01:32:04,VALID,1002.82,VALID,0,VALID,94.354,VALID,0,VALID,22.4191,VALID,354,VALID,0.203516,
2009-10-24, 01:33:04,VALID,1002.8,VALID,0,VALID,94.5218,VALID,0,VALID,22.4775,VALID,354,VALID,0.625781,
2009-10-24, 01:34:04,VALID,1002.79,VALID,0,VALID,94.5752,VALID,0,VALID,22.4953,VALID,354,VALID,0.65625,
2009-10-24, 01:35:05,VALID,1002.77,VALID,0,VALID,94.5371,VALID,0.100563,VALID,22.497,VALID,354,VALID,0.492188,
2009-10-24, 01:36:05,VALID,1002.78,VALID,0,VALID,94.5218,VALID,0,VALID,22.4775,VALID,354,VALID,0.398828,
2009-10-24, 01:37:05,VALID,1002.72,VALID,0,VALID,94.4379,VALID,0,VALID,22.4157,VALID,354,VALID,0.388672,
2009-10-24, 01:38:05,VALID,1002.72,VALID,0,VALID,94.3921,VALID,0,VALID,22.3963,VALID,354,VALID,0.276563,
2009-10-24, 01:39:05,VALID,1002.75,VALID,0,VALID,94.3769,VALID,0,VALID,22.398,VALID,354,VALID,0.451172,
2009-10-24, 01:40:05,VALID,1002.7,VALID,0,VALID,94.4303,VALID,0,VALID,22.4369,VALID,354,VALID,0.497266,
2009-10-24, 01:41:05,VALID,1002.72,VALID,0,VALID,94.5829,VALID,0.100563,VALID,22.4758,VALID,354,VALID,0.471484,
2009-10-24, 01:42:05,VALID,1002.72,VALID,0,VALID,94.7125,VALID,0,VALID,22.513,VALID,354,VALID,0.430469,
2009-10-24, 01:43:05,VALID,1002.7,VALID,0,VALID,94.8117,VALID,0,VALID,22.5942,VALID,354,VALID,0.337109,
2009-10-24, 01:44:05,VALID,1002.7,VALID,0,VALID,94.9033,VALID,0,VALID,22.6526,VALID,354,VALID,0.354688,
2009-10-24, 01:45:05,VALID,1002.7,VALID,0,VALID,94.9262,VALID,0,VALID,22.6738,VALID,354,VALID,0,
2009-10-24, 01:46:05,VALID,1002.67,VALID,0,VALID,94.949,VALID,0,VALID,22.6721,VALID,354,VALID,0,
2009-10-24, 01:47:05,VALID,1002.68,VALID,0,VALID,94.949,VALID,0,VALID,22.7127,VALID,354,VALID,0,
2009-10-24, 01:48:05,VALID,1002.69,VALID,0,VALID,94.9567,VALID,0,VALID,22.711,VALID,345,VALID,0,
2009-10-24, 01:49:05,VALID,1002.68,VALID,0,VALID,94.9872,VALID,0,VALID,22.7305,VALID,345,VALID,0,
2009-10-24, 01:50:05,VALID,1002.68,VALID,0,VALID,94.9719,VALID,0,VALID,22.711,VALID,345,VALID,0,
2009-10-24, 01:51:05,VALID,1002.66,VALID,0,VALID,94.9185,VALID,0,VALID,22.6915,VALID,345,VALID,0,
2009-10-24, 01:52:05,VALID,1002.66,VALID,0,VALID,94.8575,VALID,0,VALID,22.6526,VALID,345,VALID,0,
2009-10-24, 01:53:05,VALID,1002.7,VALID,0,VALID,94.8194,VALID,0,VALID,22.6315,VALID,345,VALID,0,
2009-10-24, 01:54:05,VALID,1002.68,VALID,0,VALID,94.7812,VALID,0,VALID,22.6332,VALID,345,VALID,0,
2009-10-24, 01:55:05,VALID,1002.71,VALID,0,VALID,94.7125,VALID,0,VALID,22.5553,VALID,345,VALID,0,
2009-10-24, 01:56:05,VALID,1002.69,VALID,0,VALID,94.6439,VALID,0,VALID,22.4953,VALID,345,VALID,0,
2009-10-24, 01:57:05,VALID,1002.69,VALID,0,VALID,94.56,VALID,0,VALID,22.4775,VALID,345,VALID,0,
2009-10-24, 01:58:05,VALID,1002.69,VALID,0,VALID,94.5523,VALID,0,VALID,22.458,VALID,345,VALID,0,
2009-10-24, 01:59:05,VALID,1002.65,VALID,0,VALID,94.5981,VALID,0,VALID,22.4775,VALID,345,VALID,0,
2009-10-24, 02:00:05,VALID,1002.66,VALID,0,VALID,94.682,VALID,0,VALID,22.497,VALID,345,VALID,0,
2009-10-24, 02:01:05,VALID,1002.66,VALID,0,VALID,94.7736,VALID,0,VALID,22.5147,VALID,345,VALID,0,
2009-10-24, 02:02:05,VALID,1002.67,VALID,0,VALID,94.8422,VALID,0,VALID,22.5359,VALID,345,VALID,0,
2009-10-24, 02:03:05,VALID,1002.66,VALID,0,VALID,94.8346,VALID,0,VALID,22.5164,VALID,345,VALID,0,
2009-10-24, 02:04:05,VALID,1002.69,VALID,0,VALID,94.8422,VALID,0,VALID,22.5164,VALID,341,VALID,0,
2009-10-24, 02:05:05,VALID,1002.68,VALID,0,VALID,94.9567,VALID,0,VALID,22.5925,VALID,295,VALID,0.435937,
2009-10-24, 02:06:05,VALID,1002.71,VALID,0,VALID,94.9796,VALID,0,VALID,22.596,VALID,336,VALID,0.478516,
2009-10-24, 02:07:05,VALID,1002.7,VALID,0,VALID,94.9414,VALID,0,VALID,22.5748,VALID,336,VALID,0.218359,
2009-10-24, 02:08:05,VALID,1002.68,VALID,0,VALID,94.9643,VALID,0,VALID,22.6349,VALID,336,VALID,0.0503906,
2009-10-24, 02:09:05,VALID,1002.64,VALID,0,VALID,94.9872,VALID,0,VALID,22.6332,VALID,349,VALID,0.526953,
2009-10-24, 02:10:05,VALID,1002.66,VALID,0,VALID,94.949,VALID,0,VALID,22.6137,VALID,348,VALID,0.44375,
2009-10-24, 02:11:05,VALID,1002.61,VALID,0,VALID,94.9414,VALID,0,VALID,22.6332,VALID,343,VALID,0.547656,
2009-10-24, 02:12:05,VALID,1002.64,VALID,0,VALID,94.949,VALID,0,VALID,22.6738,VALID,340,VALID,0.329297,
2009-10-24, 02:13:05,VALID,1002.66,VALID,0,VALID,94.9567,VALID,0,VALID,22.6898,VALID,340,VALID,0.140625,
2009-10-24, 02:14:05,VALID,1002.64,VALID,0,VALID,94.9796,VALID,0,VALID,22.7482,VALID,340,VALID,0.00898437,
2009-10-24, 02:15:05,VALID,1002.63,VALID,0,VALID,95.0177,VALID,0,VALID,22.8083,VALID,340,VALID,0.2,
2009-10-24, 02:16:05,VALID,1002.62,VALID,0,VALID,95.0101,VALID,0.100563,VALID,22.8066,VALID,340,VALID,0.009375,
2009-10-24, 02:17:05,VALID,1002.62,VALID,0,VALID,95.033,VALID,0,VALID,22.8455,VALID,340,VALID,0.157813,
2009-10-24, 02:18:05,VALID,1002.61,VALID,0,VALID,95.033,VALID,0,VALID,22.9039,VALID,340,VALID,0,
2009-10-24, 02:19:05,VALID,1002.58,VALID,0,VALID,95.0787,VALID,0,VALID,22.9817,VALID,340,VALID,0,
2009-10-24, 02:20:05,VALID,1002.56,VALID,0,VALID,95.1321,VALID,0,VALID,23.0595,VALID,342,VALID,0,
2009-10-24, 02:21:05,VALID,1002.55,VALID,0,VALID,95.1627,VALID,0,VALID,23.1374,VALID,345,VALID,0.592188,
2009-10-24, 02:22:05,VALID,1002.53,VALID,0,VALID,95.1932,VALID,0,VALID,23.2152,VALID,345,VALID,0.442187,
2009-10-24, 02:23:05,VALID,1002.53,VALID,0,VALID,95.2008,VALID,0,VALID,23.2541,VALID,346,VALID,0.502344,
2009-10-24, 02:24:05,VALID,1002.52,VALID,0,VALID,95.1855,VALID,0,VALID,23.2948,VALID,346,VALID,0.440625,
2009-10-24, 02:25:05,VALID,1002.5,VALID,0,VALID,95.094,VALID,0,VALID,23.1374,VALID,346,VALID,0.279297,
2009-10-24, 02:26:05,VALID,1002.48,VALID,0,VALID,94.8194,VALID,0,VALID,22.9622,VALID,348,VALID,0.440234,
2009-10-24, 02:27:05,VALID,1002.49,VALID,0,VALID,94.4989,VALID,0,VALID,22.8455,VALID,348,VALID,0.479297,
2009-10-24, 02:28:05,VALID,1002.5,VALID,0,VALID,94.209,VALID,0,VALID,22.7482,VALID,348,VALID,0.500391,
2009-10-24, 02:29:05,VALID,1002.45,VALID,0,VALID,94.1556,VALID,0,VALID,22.7694,VALID,351,VALID,0.677344,
2009-10-24, 02:30:05,VALID,1002.45,VALID,0,VALID,94.2548,VALID,0,VALID,22.7888,VALID,351,VALID,0.444531,
2009-10-24, 02:31:05,VALID,1002.44,VALID,0,VALID,94.4303,VALID,0,VALID,22.8066,VALID,351,VALID,0.479297,
2009-10-24, 02:32:05,VALID,1002.42,VALID,0,VALID,94.6286,VALID,0,VALID,22.9039,VALID,351,VALID,0.310156,
2009-10-24, 02:33:05,VALID,1002.41,VALID,0,VALID,94.7812,VALID,0,VALID,23.0029,VALID,349,VALID,0.492969,
2009-10-24, 02:34:05,VALID,1002.39,VALID,0,VALID,94.888,VALID,0,VALID,23.0206,VALID,345,VALID,0.304297,
2009-10-24, 02:35:05,VALID,1002.38,VALID,0,VALID,94.9414,VALID,0,VALID,23.0595,VALID,345,VALID,0.0777344,
2009-10-24, 02:36:05,VALID,1002.34,VALID,0,VALID,94.9414,VALID,0,VALID,23.0825,VALID,345,VALID,0,
2009-10-24, 02:37:05,VALID,1002.31,VALID,0,VALID,94.9185,VALID,0,VALID,23.0224,VALID,345,VALID,0,
2009-10-24, 02:38:05,VALID,1002.31,VALID,0,VALID,94.8804,VALID,0,VALID,22.9216,VALID,345,VALID,0,
2009-10-24, 02:39:05,VALID,1002.33,VALID,0,VALID,94.8422,VALID,0,VALID,22.9428,VALID,302,VALID,0.426172,
2009-10-24, 02:40:05,VALID,1002.31,VALID,0,VALID,94.8499,VALID,0,VALID,22.9428,VALID,302,VALID,0.364062,
2009-10-24, 02:41:05,VALID,1002.32,VALID,0,VALID,94.8956,VALID,0,VALID,23.0224,VALID,302,VALID,0.00625,
2009-10-24, 02:42:05,VALID,1002.32,VALID,0,VALID,94.949,VALID,0,VALID,23.0401,VALID,302,VALID,0.273828,
2009-10-24, 02:43:05,VALID,1002.33,VALID,0,VALID,95.0024,VALID,0,VALID,23.079,VALID,302,VALID,0.337109,
2009-10-24, 02:44:05,VALID,1002.31,VALID,0,VALID,95.0406,VALID,0,VALID,23.1179,VALID,302,VALID,0.0171875,
2009-10-24, 02:45:05,VALID,1002.3,VALID,0,VALID,95.0635,VALID,0,VALID,23.1975,VALID,302,VALID,0,
2009-10-24, 02:46:05,VALID,1002.3,VALID,0,VALID,95.094,VALID,0,VALID,23.1763,VALID,302,VALID,0,
2009-10-24, 02:47:05,VALID,1002.31,VALID,0,VALID,95.0787,VALID,0,VALID,23.1179,VALID,302,VALID,0,
2009-10-24, 02:48:05,VALID,1002.29,VALID,0,VALID,94.9643,VALID,0,VALID,23.0418,VALID,1,VALID,0.240234,
2009-10-24, 02:49:05,VALID,1002.31,VALID,0,VALID,94.8346,VALID,0.100563,VALID,22.9251,VALID,1,VALID,0.373437,
2009-10-24, 02:50:05,VALID,1002.27,VALID,0,VALID,94.621,VALID,0,VALID,22.8066,VALID,1,VALID,0.408984,
2009-10-24, 02:51:05,VALID,1002.26,VALID,0,VALID,94.5447,VALID,0,VALID,22.7888,VALID,1,VALID,0.190625,
2009-10-24, 02:52:05,VALID,1002.26,VALID,0,VALID,94.5066,VALID,0,VALID,22.7287,VALID,1,VALID,0,
2009-10-24, 02:53:05,VALID,1002.24,VALID,0,VALID,94.5142,VALID,0,VALID,22.7287,VALID,1,VALID,0,
2009-10-24, 02:54:05,VALID,1002.23,VALID,0,VALID,94.5829,VALID,0,VALID,22.7694,VALID,1,VALID,0,
2009-10-24, 02:55:05,VALID,1002.22,VALID,0,VALID,94.5981,VALID,0,VALID,22.7093,VALID,1,VALID,0,
2009-10-24, 02:56:05,VALID,1002.23,VALID,0,VALID,94.5829,VALID,0,VALID,22.6898,VALID,1,VALID,0,
2009-10-24, 02:57:05,VALID,1002.22,VALID,0,VALID,94.6286,VALID,0.100563,VALID,22.6704,VALID,1,VALID,0,
2009-10-24, 02:58:05,VALID,1002.22,VALID,0,VALID,94.6973,VALID,0,VALID,22.711,VALID,1,VALID,0.632031,
2009-10-24, 02:59:05,VALID,1002.23,VALID,0,VALID,94.7125,VALID,0,VALID,22.6332,VALID,1,VALID,0.759766,
2009-10-24, 03:00:05,VALID,1002.24,VALID,0,VALID,94.621,VALID,0,VALID,22.5553,VALID,11,VALID,0.699609,
2009-10-24, 03:01:05,VALID,1002.24,VALID,0,VALID,94.6134,VALID,0,VALID,22.5164,VALID,11,VALID,0.632031,
2009-10-24, 03:02:05,VALID,1002.26,VALID,0,VALID,94.621,VALID,0,VALID,22.497,VALID,11,VALID,0.00585938,
2009-10-24, 03:03:05,VALID,1002.26,VALID,0,VALID,94.7736,VALID,0,VALID,22.5359,VALID,11,VALID,0,
2009-10-24, 03:04:05,VALID,1002.28,VALID,0,VALID,94.8804,VALID,0,VALID,22.5748,VALID,11,VALID,0,
2009-10-24, 03:05:05,VALID,1002.25,VALID,0,VALID,94.9338,VALID,0,VALID,22.5942,VALID,11,VALID,0,
2009-10-24, 03:06:05,VALID,1002.27,VALID,0,VALID,94.949,VALID,0,VALID,22.5553,VALID,11,VALID,0,
2009-10-24, 03:07:05,VALID,1002.24,VALID,0,VALID,94.9643,VALID,0,VALID,22.5164,VALID,11,VALID,0,
2009-10-24, 03:08:05,VALID,1002.21,VALID,0,VALID,94.9796,VALID,0,VALID,22.5376,VALID,11,VALID,0,
2009-10-24, 03:09:05,VALID,1002.19,VALID,0,VALID,94.9796,VALID,0,VALID,22.5164,VALID,11,VALID,0,
2009-10-24, 03:10:05,VALID,1002.21,VALID,0,VALID,94.9948,VALID,0,VALID,22.497,VALID,11,VALID,0,
2009-10-24, 03:11:05,VALID,1002.19,VALID,0,VALID,95.0177,VALID,0,VALID,22.497,VALID,11,VALID,0,
2009-10-24, 03:12:05,VALID,1002.17,VALID,0,VALID,95.0482,VALID,0,VALID,22.5164,VALID,11,VALID,0,
2009-10-24, 03:13:05,VALID,1002.2,VALID,0,VALID,95.0864,VALID,0.100563,VALID,22.5359,VALID,11,VALID,0,
2009-10-24, 03:14:05,VALID,1002.17,VALID,0,VALID,95.0864,VALID,0.100563,VALID,22.4563,VALID,11,VALID,0,
2009-10-24, 03:15:05,VALID,1002.2,VALID,0,VALID,95.0253,VALID,0,VALID,22.3785,VALID,11,VALID,0,
2009-10-24, 03:16:05,VALID,1002.18,VALID,0,VALID,95.0177,VALID,0,VALID,22.3396,VALID,11,VALID,0,
2009-10-24, 03:17:05,VALID,1002.2,VALID,0,VALID,95.0482,VALID,0,VALID,22.3785,VALID,11,VALID,0,
2009-10-24, 03:18:05,VALID,1002.21,VALID,0,VALID,95.1474,VALID,0,VALID,22.497,VALID,11,VALID,0,
2009-10-24, 03:19:05,VALID,1002.22,VALID,0,VALID,95.1932,VALID,0,VALID,22.5147,VALID,11,VALID,0,
2009-10-24, 03:20:05,VALID,1002.2,VALID,0,VALID,95.2847,VALID,0,VALID,22.6137,VALID,11,VALID,0,
2009-10-24, 03:21:05,VALID,1002.2,VALID,0,VALID,95.3381,VALID,0,VALID,22.6704,VALID,11,VALID,0,
2009-10-24, 03:22:05,VALID,1002.2,VALID,0,VALID,95.3763,VALID,0,VALID,22.6898,VALID,11,VALID,0.376172,
2009-10-24, 03:23:05,VALID,1002.21,VALID,0,VALID,95.3915,VALID,0,VALID,22.6704,VALID,3,VALID,0.571484,
2009-10-24, 03:24:05,VALID,1002.18,VALID,0,VALID,95.3763,VALID,0,VALID,22.6704,VALID,3,VALID,0.621875,
2009-10-24, 03:25:05,VALID,1002.19,VALID,0,VALID,95.361,VALID,0,VALID,22.6721,VALID,3,VALID,0.325,
2009-10-24, 03:26:05,VALID,1002.23,VALID,0,VALID,95.3686,VALID,0,VALID,22.6509,VALID,355,VALID,0.569141,
2009-10-24, 03:27:05,VALID,1002.22,VALID,0,VALID,95.3839,VALID,0,VALID,22.6526,VALID,349,VALID,0.461328,
2009-10-24, 03:28:05,VALID,1002.26,VALID,0,VALID,95.3839,VALID,0,VALID,22.612,VALID,347,VALID,0.472656,
2009-10-24, 03:29:05,VALID,1002.28,VALID,0,VALID,95.3991,VALID,0,VALID,22.6704,VALID,348,VALID,0.382813,
2009-10-24, 03:30:05,VALID,1002.3,VALID,0,VALID,95.4526,VALID,0,VALID,22.7888,VALID,349,VALID,0.105859,
2009-10-24, 03:31:05,VALID,1002.34,VALID,0,VALID,95.4602,VALID,0,VALID,22.7677,VALID,349,VALID,0.180078,
2009-10-24, 03:32:05,VALID,1002.36,VALID,0,VALID,95.4602,VALID,0,VALID,22.8066,VALID,349,VALID,0.148047,
2009-10-24, 03:33:05,VALID,1002.41,VALID,0,VALID,95.4754,VALID,0,VALID,22.826,VALID,349,VALID,0.0453125,
2009-10-24, 03:34:05,VALID,1002.44,VALID,0,VALID,95.4526,VALID,0,VALID,22.826,VALID,349,VALID,0,
2009-10-24, 03:35:05,VALID,1002.45,VALID,0,VALID,95.4602,VALID,0,VALID,22.8278,VALID,349,VALID,0.0503906,
2009-10-24, 03:36:05,VALID,1002.52,VALID,0,VALID,95.422,VALID,0.100563,VALID,22.7871,VALID,349,VALID,0.0015625,
2009-10-24, 03:37:05,VALID,1002.56,VALID,0,VALID,95.4144,VALID,0,VALID,22.7677,VALID,349,VALID,0,
2009-10-24, 03:38:05,VALID,1002.58,VALID,0,VALID,95.3686,VALID,0,VALID,22.7482,VALID,349,VALID,0,
2009-10-24, 03:39:05,VALID,1002.64,VALID,0,VALID,95.3686,VALID,0,VALID,22.7482,VALID,349,VALID,0.119141,
2009-10-24, 03:40:05,VALID,1002.68,VALID,0,VALID,95.3457,VALID,0,VALID,22.8066,VALID,356,VALID,0.448438,
2009-10-24, 03:41:05,VALID,1002.68,VALID,0,VALID,95.361,VALID,0,VALID,22.826,VALID,356,VALID,0.352734,
2009-10-24, 03:42:05,VALID,1002.7,VALID,0,VALID,95.3534,VALID,0,VALID,22.9056,VALID,354,VALID,0.388672,
2009-10-24, 03:43:05,VALID,1002.73,VALID,0,VALID,95.3534,VALID,0,VALID,22.8844,VALID,354,VALID,0.529688,
2009-10-24, 03:44:05,VALID,1002.75,VALID,0,VALID,95.3305,VALID,0,VALID,22.8649,VALID,353,VALID,0.689062,
2009-10-24, 03:45:05,VALID,1002.77,VALID,0,VALID,95.2923,VALID,0.100563,VALID,22.9039,VALID,354,VALID,0.748047,
2009-10-24, 03:46:05,VALID,1002.79,VALID,0,VALID,95.3076,VALID,0,VALID,22.9834,VALID,359,VALID,0.7875,